| time (UTC) | temp F | wind direction | speed MPH | gust MPH | rain 1hr in | rain 24hr in | rain mn in | humidity % | barometer mb |
| 20260904093055 | 76 | 167 | 2.0 | 7.0 | 0.00 | 0.00 | 0.00 | 79 | 1010.7 |
| 20260904091606 | 76 | 197 | 4.0 | 10.0 | 0.00 | 0.00 | 0.00 | 79 | 1010.5 |
| 20260904090052 | 76 | 162 | 2.0 | 9.0 | 0.00 | 0.00 | 0.00 | 79 | 1010.5 |
| 20260904084551 | 76 | 160 | 1.0 | 7.0 | 0.00 | 0.00 | 0.00 | 80 | 1010.5 |
| 20260904083106 | 76 | 162 | 2.0 | 6.0 | 0.00 | 0.00 | 0.00 | 80 | 1010.4 |
| 20260904081550 | 76 | 146 | 3.0 | 5.0 | 0.00 | 0.00 | 0.00 | 79 | 1010.4 |
| 20260904080048 | 76 | 179 | 0.0 | 5.0 | 0.00 | 0.00 | 0.00 | 79 | 1010.5 |
| 20260904074603 | 76 | 154 | 2.0 | 6.0 | 0.00 | 0.00 | 0.00 | 78 | 1010.2 |
| 20260904073045 | 76 | 160 | 3.0 | 4.0 | 0.00 | 0.00 | 0.00 | 78 | 1010.4 |
| 20260904071544 | 77 | 178 | 2.0 | 6.0 | 0.00 | 0.00 | 0.00 | 77 | 1010.5 |
| 20260904070042 | 77 | 145 | 3.0 | 5.0 | 0.00 | 0.00 | 0.00 | 77 | 1010.6 |
| 20260904064539 | 77 | 162 | 2.0 | 5.0 | 0.00 | 0.00 | 0.00 | 76 | 1010.8 |
| 20260904063043 | 78 | 166 | 2.0 | 6.0 | 0.00 | 0.00 | 0.00 | 75 | 1010.7 |
| 20260904061539 | 78 | 191 | 3.0 | 7.0 | 0.00 | 0.00 | 0.00 | 74 | 1010.5 |
| 20260904060032 | 79 | 149 | 3.0 | 9.0 | 0.00 | 0.00 | 0.00 | 74 | 1010.6 |
| 20260904054535 | 79 | 180 | 3.0 | 8.0 | 0.00 | 0.00 | 0.00 | 73 | 1010.5 |
| 20260904053033 | 79 | 164 | 4.0 | 8.0 | 0.00 | 0.00 | 0.00 | 72 | 1010.5 |
| 20260904051528 | 80 | 168 | 2.0 | 7.0 | 0.00 | 0.00 | 0.00 | 71 | 1010.5 |
| 20260904050024 | 80 | 195 | 3.0 | 9.0 | 0.00 | 0.00 | 0.00 | 70 | 1010.4 |
| 20260904044524 | 80 | 163 | 4.0 | 8.0 | 0.00 | 0.00 | 0.00 | 69 | 1010.4 |
| 20260904043024 | 81 | 162 | 4.0 | 10.0 | 0.00 | 0.00 | 0.00 | 69 | 1010.5 |
| 20260904041533 | 81 | 154 | 4.0 | 9.0 | 0.00 | 0.00 | 0.00 | 68 | 1010.5 |
| 20260904040025 | 82 | 153 | 6.0 | 10.0 | 0.00 | 0.00 | 0.00 | 67 | 1010.5 |
| 20260904034523 | 82 | 217 | 5.0 | 10.0 | 0.00 | 0.00 | 0.00 | 66 | 1010.6 |
| 20260904033022 | 83 | 166 | 3.0 | 10.0 | 0.00 | 0.00 | 0.00 | 65 | 1010.6 |
| 20260904031521 | 83 | 162 | 6.0 | 15.0 | 0.00 | 0.00 | 0.00 | 65 | 1010.5 |
| 20260904030022 | 83 | 155 | 7.0 | 14.0 | 0.00 | 0.00 | 0.00 | 64 | 1010.5 |
| 20260904024521 | 84 | 153 | 6.0 | 12.0 | 0.00 | 0.00 | 0.00 | 63 | 1010.2 |
| 20260904023020 | 84 | 149 | 6.0 | 12.0 | 0.00 | 0.00 | 0.00 | 63 | 1010.1 |
| 20260904021532 | 85 | 165 | 4.0 | 13.0 | 0.00 | 0.00 | 0.00 | 62 | 1009.9 |
| 20260904020020 | 85 | 223 | 8.0 | 14.0 | 0.00 | 0.00 | 0.00 | 62 | 1009.7 |
| 20260904014518 | 85 | 143 | 6.0 | 11.0 | 0.00 | 0.00 | 0.00 | 62 | 1009.3 |
| 20260904013021 | 86 | 179 | 5.0 | 10.0 | 0.00 | 0.00 | 0.00 | 61 | 1009.1 |
| 20260904011517 | 86 | 174 | 7.0 | 14.0 | 0.00 | 0.00 | 0.00 | 60 | 1008.8 |
| 20260904010018 | 87 | 162 | 8.0 | 13.0 | 0.00 | 0.00 | 0.00 | 59 | 1008.8 |
| 20260904004517 | 88 | 139 | 6.0 | 15.0 | 0.00 | 0.00 | 0.00 | 58 | 1008.8 |
| 20260904003016 | 89 | 177 | 7.0 | 15.0 | 0.00 | 0.00 | 0.00 | 56 | 1008.6 |
| 20260904001517 | 90 | 142 | 10.0 | 17.0 | 0.00 | 0.00 | 0.00 | 54 | 1008.5 |
| 20260904000015 | 91 | 181 | 6.0 | 20.0 | 0.00 | 0.00 | 0.00 | 54 | 1008.4 |
| 20260903234514 | 91 | 168 | 8.0 | 15.0 | 0.00 | 0.00 | 0.00 | 52 | 1008.4 |
| 20260903233014 | 92 | 157 | 7.0 | 15.0 | 0.00 | 0.00 | 0.00 | 51 | 1008.3 |
| 20260903231513 | 92 | 139 | 6.0 | 15.0 | 0.00 | 0.00 | 0.00 | 51 | 1008.3 |
| 20260903230014 | 92 | 130 | 8.0 | 18.0 | 0.00 | 0.00 | 0.00 | 51 | 1008.2 |
| 20260903224512 | 92 | 92 | 6.0 | 16.0 | 0.00 | 0.00 | 0.00 | 51 | 1008.1 |
| 20260903223010 | 92 | 159 | 4.0 | 15.0 | 0.00 | 0.00 | 0.00 | 53 | 1008.2 |
| 20260903221508 | 92 | 161 | 6.0 | 11.0 | 0.00 | 0.00 | 0.00 | 52 | 1008.2 |
| 20260903220006 | 92 | 134 | 10.0 | 16.0 | 0.00 | 0.00 | 0.00 | 52 | 1008.3 |
| 20260903214502 | 91 | 179 | 4.0 | 14.0 | 0.00 | 0.00 | 0.00 | 54 | 1008.3 |
| 20260903213102 | 91 | 189 | 8.0 | 16.0 | 0.00 | 0.00 | 0.00 | 53 | 1008.6 |
| 20260903211559 | 91 | 153 | 7.0 | 12.0 | 0.00 | 0.00 | 0.00 | 55 | 1008.6 |
| 20260903210100 | 90 | 133 | 6.0 | 14.0 | 0.00 | 0.00 | 0.00 | 55 | 1008.9 |
| 20260903204555 | 90 | 115 | 9.0 | 17.0 | 0.00 | 0.00 | 0.00 | 56 | 1009.1 |
| 20260903203104 | 90 | 169 | 7.0 | 17.0 | 0.00 | 0.00 | 0.00 | 56 | 1009.1 |
| 20260903201551 | 90 | 143 | 9.0 | 18.0 | 0.00 | 0.00 | 0.00 | 56 | 1009.2 |
| 20260903200050 | 90 | 142 | 5.0 | 14.0 | 0.00 | 0.00 | 0.00 | 57 | 1009.4 |
| 20260903194549 | 89 | 238 | 3.0 | 16.0 | 0.00 | 0.00 | 0.00 | 58 | 1009.6 |
| 20260903193048 | 89 | 162 | 6.0 | 18.0 | 0.00 | 0.00 | 0.00 | 57 | 1009.8 |
| 20260903191543 | 89 | 205 | 5.0 | 12.0 | 0.00 | 0.00 | 0.00 | 57 | 1010.0 |
| 20260903190043 | 88 | 176 | 6.0 | 12.0 | 0.00 | 0.00 | 0.00 | 58 | 1010.1 |
| 20260903184541 | 88 | 202 | 6.0 | 16.0 | 0.00 | 0.00 | 0.00 | 59 | 1010.2 |
| 20260903183038 | 88 | 147 | 8.0 | 14.0 | 0.00 | 0.00 | 0.00 | 59 | 1010.6 |
| 20260903181537 | 88 | 177 | 9.0 | 16.0 | 0.00 | 0.00 | 0.00 | 59 | 1010.6 |
| 20260903180045 | 89 | 269 | 8.0 | 14.0 | 0.00 | 0.00 | 0.00 | 60 | 1010.6 |
| 20260903174537 | 89 | 158 | 5.0 | 13.0 | 0.00 | 0.00 | 0.00 | 59 | 1010.8 |
| 20260903173033 | 88 | 142 | 7.0 | 13.0 | 0.00 | 0.00 | 0.00 | 58 | 1011.0 |
| 20260903171542 | 87 | 195 | 8.0 | 17.0 | 0.00 | 0.00 | 0.00 | 60 | 1011.1 |
| 20260903170039 | 87 | 173 | 6.0 | 14.0 | 0.00 | 0.00 | 0.00 | 61 | 1011.1 |
| 20260903164527 | 87 | 154 | 6.0 | 11.0 | 0.00 | 0.00 | 0.00 | 64 | 1011.2 |
| 20260903163027 | 86 | 158 | 4.0 | 15.0 | 0.00 | 0.00 | 0.00 | 64 | 1011.2 |
| 20260903161523 | 85 | 162 | 5.0 | 9.0 | 0.00 | 0.00 | 0.00 | 65 | 1011.3 |
| 20260903160024 | 85 | 102 | 8.0 | 13.0 | 0.00 | 0.00 | 0.00 | 66 | 1011.3 |
| 20260903154523 | 84 | 217 | 3.0 | 9.0 | 0.00 | 0.00 | 0.00 | 67 | 1011.4 |
| 20260903153022 | 83 | 137 | 3.0 | 11.0 | 0.00 | 0.00 | 0.00 | 68 | 1011.5 |
| 20260903151521 | 82 | 143 | 1.0 | 11.0 | 0.00 | 0.00 | 0.00 | 71 | 1011.5 |
| 20260903150038 | 81 | 203 | 6.0 | 9.0 | 0.00 | 0.00 | 0.00 | 72 | 1011.8 |
| 20260903144527 | 81 | 138 | 4.0 | 9.0 | 0.00 | 0.00 | 0.00 | 72 | 1012.0 |
| 20260903143027 | 80 | 217 | 6.0 | 11.0 | 0.00 | 0.00 | 0.00 | 74 | 1012.0 |
| 20260903141528 | 80 | 173 | 7.0 | 14.0 | 0.00 | 0.00 | 0.00 | 74 | 1011.9 |
| 20260903140034 | 79 | 154 | 7.0 | 12.0 | 0.00 | 0.00 | 0.00 | 75 | 1012.1 |
| 20260903134519 | 78 | 157 | 8.0 | 15.0 | 0.00 | 0.00 | 0.00 | 76 | 1012.1 |
| 20260903133021 | 78 | 156 | 6.0 | 13.0 | 0.00 | 0.00 | 0.00 | 76 | 1012.1 |
| 20260903131523 | 78 | 214 | 6.0 | 13.0 | 0.00 | 0.00 | 0.00 | 78 | 1012.1 |
| 20260903130014 | 77 | 147 | 5.0 | 11.0 | 0.00 | 0.00 | 0.00 | 79 | 1011.9 |
| 20260903124514 | 76 | 141 | 5.0 | 9.0 | 0.00 | 0.00 | 0.00 | 79 | 1011.9 |
| 20260903123010 | 75 | 173 | 1.0 | 6.0 | 0.00 | 0.00 | 0.00 | 80 | 1011.8 |
| 20260903121508 | 74 | 156 | 0.0 | 4.0 | 0.00 | 0.00 | 0.00 | 81 | 1011.7 |
| 20260903120007 | 75 | 174 | 2.0 | 6.0 | 0.00 | 0.00 | 0.00 | 80 | 1011.5 |
| 20260903114504 | 75 | 257 | 4.0 | 9.0 | 0.00 | 0.00 | 0.00 | 79 | 1011.2 |
| 20260903113003 | 75 | 238 | 2.0 | 8.0 | 0.00 | 0.00 | 0.00 | 78 | 1011.3 |
| 20260903111600 | 76 | 148 | 3.0 | 9.0 | 0.00 | 0.00 | 0.00 | 77 | 1011.0 |
| 20260903110105 | 76 | 155 | 5.0 | 9.0 | 0.00 | 0.00 | 0.00 | 77 | 1011.0 |
| 20260903104615 | 76 | 158 | 3.0 | 8.0 | 0.00 | 0.00 | 0.00 | 77 | 1010.9 |
| 20260903103059 | 76 | 174 | 4.0 | 8.0 | 0.00 | 0.00 | 0.00 | 76 | 1011.0 |
| 20260903101601 | 77 | 160 | 2.0 | 6.0 | 0.00 | 0.00 | 0.00 | 75 | 1011.1 |
| 20260903100053 | 77 | 150 | 4.0 | 8.0 | 0.00 | 0.00 | 0.00 | 74 | 1011.0 |
| 20260903094601 | 77 | 158 | 4.0 | 8.0 | 0.00 | 0.00 | 0.00 | 74 | 1011.0 |